Location: Luxembourg
(49.6117°N, 6.1300°E)
Time: 00:14:02
(UTC+01:00)

Envisat - Pass Details

Date: 02 February 2019
Orbit: 764 x 766 km, 98.2° (Epoch: 19 February)

Event Time Altitude Azimuth Distance (km) Brightness Sun altitude
Rises 19:19:30 0° 171° (S) 3,220 6.2 -17.5°
Reaches altitude 10° 19:21:48 10° 173° (S) 2,298 5.5 -17.9°
Maximum altitude 19:26:51 70° 257° (WSW) 816 3.3 -18.7°
Drops below altitude 10° 19:31:57 10° 342° (NNW) 2,314 5.7 -19.5°
Sets 19:34:17 0° 345° (NNW) 3,245 6.4 -19.9°
